sat.trackr.live / text

‹ back to catalog

KINEIS-1E

NORAD 60083 · 2024-114E

PAYLOAD ACTIVE UNKNOWN

§ Identity

Operator
Country
FR
Launch date
2024-06-20
Launch site
RLLB
Launch vehicle
Mass (kg)
RCS (m²)

External: N2YO · Heavens-Above · Gunter

§ Orbital elements

Epoch: 2026-09-22T22:53:21.111648Z

Period
97.25 min
Inclination
97.8930°
Eccentricity
0.0001302
Mean motion
14.80778090 rev/d
Perigee alt
626.0 km
Apogee alt
627.8 km
Semi-major
7,005.0 km
B*
5.9414e-5
RAAN
287.8366°
Arg perigee
230.3081°
Mean anomaly
129.8017°
Rev number
12,185

§ Raw data

KINEIS-1E1 60083U 24114E   26265.95371657  .00000406  00000+0  59414-4 0  99992 60083  97.8930 287.8366 0001302 230.3081 129.8017 14.80778090121857

JSON: /api/v1/satellites/60083 · /tle

For live sub-satellite position, see the globe view (requires WebGL).

§ Visibility from observer

Set your observer location to see the next 7 days of passes ≥ 10°. The values pass through the URL so the page stays shareable.

No JS? Fill the form by hand. The geolocation button needs JavaScript.

§ Radio — SatNOGS DB

ModeDescriptionDownlinkUplink
BPSK PMT-A3 Mode U - Telemetry 400.657 MHz
BPSK S-band telemetry 2.266 GHz

2 transmitters · refreshed weekly from db.satnogs.org